STARLINK-4678, 53780

Orbit data source: Space-Track

STARLINK-4678, 53780 is a payload satellite owned by SpaceX/Seattle (US) in LEO that was launched on Sun, 11 Sep 2022 UTC via an FALCON 9 launch vehicle from the Air Force Eastern Test Range (AFETR). Payload-class satellites include a variety of spacecraft equipped with specific instruments for various scientific and technological missions. These include communications satellites like Starlink; space stations such as the ISS; scientific satellites like the Hubble; Earth observation satellites from companies like Planet Labs, Umbra, and HawkEye 360; GPS; miniature CubeSats for education and research; and military/defense satellites.

Loading next visibility...
Identifier
53780, 2022-111H
Orbit
LEO
Country
Flag of USUS
Related business
Manufacturer
SpaceX/Seattle
Mission
Operational Commercial Communications
Bus & Motor
STARLINK, Unknown motor
Mass
305 kg wet, ~290 kg dry
Launch date (UTC)
2022-09-11 (4 years ago)
Launch vehicle
FALCON 9
Launch site
Air Force Eastern Test Range (AFETR)
Object type
Payload
Rocket body
Debris
Shape & HBR
Box + 1 Pan, 10.1 m
Radar Cross Section
13.562 m², Large (>1 m²)

Expand to show TLE details & history
Last TLE update: 13 hours ago

TLE from 13 hours ago
0 STARLINK-4678
1 53780U 22111H   26127.90987522  .00001124  00000-0  88706-4 0  9991
2 53780  53.2187   8.4657 0000693  59.0133 301.0927 15.08841678202633
Epoch: 2026-05-07T21:50Z
TLE epoch observation values (Epoch: 2026-05-07T21:50:13.219Z)
Latitude
-0.00002°
Longitude
175.16137°
Altitude
540.388 km
Speed
7.593 km/s
True Right ascension
00h 33m 51s
True Declination
0° 00' 00"
Sunlit
Object was in daylight at epoch
Visualization orbit readout
Latitude
Unknown
Longitude
Unknown
Altitude
Unknown
Speed
Unknown
Apparent Right ascension
Unknown
Apparent Declination
Unknown
Sunlit
N/A
Visualization observer readout
Local Sidereal Time
18:28:07
Azimuth
Unknown
Elevation
Unknown
Doppler factor
Unknown
Orbital elements
Apogee altitude
540.462 km
Perigee altitude
539.504 km
Semi-major axis
6,918.12 km
Eccentricity
0.00007
Inclination
53.2187°
RAAN
8.4657°
Arg. of periapsis
59.0133°
True anomaly
301.0859°
Mean anomaly
301.0927°
Eccentric anomaly
301.0893°
Mean motion
3.77191 °/min
Orbital period
95.44 mins
BSTAR
0.000088706
Loading maneuver chart data...
Computing Atmospheric mass density...
Loading historical data...
Loading historical data...
Loading historical data...
Loading historical data...
Loading historical data...
Loading historical data...
Loading historical data...

Documentation

Showing up to 5 results
|